| time (UTC) | temp C | wind direction | speed KPH | gust KPH | rain 1hr cm | rain 24hr cm | rain mn cm | humidity % | barometer mb |
| 20260506103001 | 13 | 25 | 9.7 | 19.3 | 0.00 | 0.00 | 0.00 | 74 | 1010.6 |
| 20260506102804 | 13 | 14 | 14.5 | 22.5 | 0.00 | 0.00 | 0.00 | 74 | 1009.8 |
| 20260506102006 | 13 | 19 | 9.7 | 17.7 | 0.00 | 0.00 | 0.00 | 74 | 1010.4 |
| 20260506101500 | 13 | 360 | 11.3 | 17.7 | 0.00 | 0.00 | 0.00 | 74 | 1010.5 |
| 20260506101304 | 13 | 10 | 14.5 | 20.9 | 0.00 | 0.00 | 0.00 | 74 | 1009.5 |
| 20260506101004 | 13 | 360 | 11.3 | 24.1 | 0.00 | 0.00 | 0.00 | 74 | 1010.2 |
| 20260506100503 | 13 | 355 | 9.7 | 24.1 | 0.00 | 0.00 | 0.00 | 74 | 1010.2 |
| 20260506100304 | 13 | 11 | 11.3 | 27.4 | 0.00 | 0.00 | 0.00 | 74 | 1009.4 |
| 20260506100005 | 13 | 360 | 9.7 | 19.3 | 0.00 | 0.00 | 0.00 | 74 | 1010.2 |
| 20260506095506 | 13 | 16 | 8.0 | 16.1 | 0.00 | 0.00 | 0.00 | 75 | 1010.1 |
| 20260506095305 | 13 | 356 | 8.0 | 16.1 | 0.00 | 0.00 | 0.00 | 75 | 1009.3 |
| 20260506095006 | 13 | 5 | 9.7 | 16.1 | 0.00 | 0.00 | 0.00 | 75 | 1010.1 |
| 20260506094804 | 13 | 358 | 11.3 | 19.3 | 0.00 | 0.00 | 0.00 | 75 | 1009.3 |
| 20260506094501 | 13 | 360 | 8.0 | 16.1 | 0.00 | 0.00 | 0.00 | 75 | 1010.0 |
| 20260506094304 | 14 | 11 | 9.7 | 19.3 | 0.00 | 0.00 | 0.00 | 75 | 1009.4 |
| 20260506094006 | 13 | 344 | 6.4 | 12.9 | 0.00 | 0.00 | 0.00 | 75 | 1010.1 |
| 20260506093803 | 13 | 23 | 8.0 | 14.5 | 0.00 | 0.00 | 0.00 | 75 | 1009.3 |
| 20260506093304 | 13 | 22 | 9.7 | 16.1 | 0.00 | 0.00 | 0.00 | 75 | 1009.3 |
| 20260506093005 | 13 | 22 | 8.0 | 19.3 | 0.00 | 0.00 | 0.00 | 75 | 1010.0 |
| 20260506092803 | 14 | 14 | 11.3 | 20.9 | 0.00 | 0.00 | 0.00 | 75 | 1009.4 |
| 20260506092502 | 13 | 327 | 8.0 | 19.3 | 0.00 | 0.00 | 0.00 | 75 | 1010.1 |
| 20260506092306 | 14 | 359 | 11.3 | 22.5 | 0.00 | 0.00 | 0.00 | 74 | 1009.2 |
| 20260506092003 | 13 | 5 | 9.7 | 16.1 | 0.00 | 0.00 | 0.00 | 74 | 1010.0 |
| 20260506091804 | 14 | 355 | 11.3 | 20.9 | 0.00 | 0.00 | 0.00 | 74 | 1009.2 |
| 20260506091506 | 13 | 14 | 8.0 | 16.1 | 0.00 | 0.00 | 0.00 | 74 | 1010.0 |
| 20260506091303 | 14 | 0 | 9.7 | 16.1 | 0.00 | 0.00 | 0.00 | 74 | 1009.2 |
| 20260506091004 | 13 | 13 | 6.4 | 12.9 | 0.00 | 0.00 | 0.00 | 75 | 1010.0 |
| 20260506090304 | 14 | 3 | 9.7 | 14.5 | 0.00 | 0.00 | 0.00 | 75 | 1009.0 |
| 20260506085804 | 14 | 7 | 8.0 | 16.1 | 0.00 | 0.00 | 0.00 | 75 | 1009.0 |
| 20260506085501 | 14 | 346 | 9.7 | 17.7 | 0.00 | 0.00 | 0.00 | 75 | 1009.8 |
| 20260506085306 | 14 | 12 | 11.3 | 22.5 | 0.00 | 0.00 | 0.00 | 75 | 1008.9 |
| 20260506085002 | 14 | 31 | 9.7 | 16.1 | 0.00 | 0.00 | 0.00 | 75 | 1009.6 |
| 20260506084804 | 14 | 8 | 11.3 | 19.3 | 0.00 | 0.00 | 0.00 | 75 | 1008.9 |
| 20260506084502 | 14 | 344 | 8.0 | 16.1 | 0.00 | 0.00 | 0.00 | 75 | 1009.7 |
| 20260506084002 | 14 | 355 | 8.0 | 14.5 | 0.00 | 0.00 | 0.00 | 75 | 1009.8 |
| 20260506083500 | 14 | 9 | 6.4 | 12.9 | 0.00 | 0.00 | 0.00 | 75 | 1009.7 |
| 20260506083303 | 14 | 5 | 8.0 | 14.5 | 0.00 | 0.00 | 0.00 | 75 | 1008.8 |
| 20260506083001 | 14 | 355 | 6.4 | 12.9 | 0.00 | 0.00 | 0.00 | 75 | 1009.6 |
| 20260506082804 | 14 | 30 | 6.4 | 14.5 | 0.00 | 0.00 | 0.00 | 75 | 1008.4 |
| 20260506082503 | 14 | 44 | 6.4 | 12.9 | 0.00 | 0.00 | 0.00 | 75 | 1009.3 |
| 20260506082305 | 14 | 26 | 6.4 | 14.5 | 0.00 | 0.00 | 0.00 | 75 | 1008.3 |
| 20260506081804 | 14 | 28 | 9.7 | 14.5 | 0.00 | 0.00 | 0.00 | 75 | 1008.3 |
| 20260506081501 | 14 | 25 | 8.0 | 16.1 | 0.00 | 0.00 | 0.00 | 75 | 1009.3 |
| 20260506081304 | 14 | 12 | 8.0 | 20.9 | 0.00 | 0.00 | 0.00 | 75 | 1008.4 |
| 20260506081003 | 14 | 5 | 8.0 | 16.1 | 0.00 | 0.00 | 0.00 | 75 | 1009.4 |
| 20260506080500 | 14 | 36 | 8.0 | 17.7 | 0.00 | 0.00 | 0.00 | 76 | 1009.3 |
| 20260506073004 | 15 | 5 | 11.3 | 20.9 | 0.00 | 0.00 | 0.00 | 76 | 1009.4 |
| 20260506072804 | 15 | 11 | 11.3 | 22.5 | 0.00 | 0.00 | 0.00 | 76 | 1008.7 |
| 20260506072502 | 15 | 30 | 9.7 | 17.7 | 0.00 | 0.00 | 0.00 | 76 | 1009.5 |
| 20260506072004 | 15 | 46 | 11.3 | 20.9 | 0.00 | 0.00 | 0.00 | 76 | 1009.5 |
| 20260506071804 | 15 | 33 | 12.9 | 20.9 | 0.00 | 0.00 | 0.00 | 76 | 1008.7 |
| 20260506071502 | 15 | 31 | 12.9 | 20.9 | 0.00 | 0.00 | 0.00 | 76 | 1009.5 |
| 20260506071000 | 15 | 355 | 12.9 | 20.9 | 0.00 | 0.00 | 0.00 | 76 | 1009.6 |
| 20260506070504 | 15 | 9 | 9.7 | 17.7 | 0.00 | 0.00 | 0.00 | 76 | 1009.6 |
| 20260506061458 | 16 | 21 | 8.0 | 19.3 | 0.00 | 0.00 | 0.00 | 78 | 1009.1 |
| 20260506060804 | 16 | 21 | 9.7 | 16.1 | 0.00 | 0.00 | 0.00 | 78 | 1008.2 |
| 20260506060458 | 16 | 340 | 8.0 | 17.7 | 0.00 | 0.00 | 0.00 | 78 | 1009.2 |
| 20260506060303 | 16 | 332 | 11.3 | 22.5 | 0.00 | 0.00 | 0.00 | 78 | 1008.3 |
| 20260506051001 | 17 | 5 | 9.7 | 19.3 | 0.00 | 0.00 | 0.00 | 77 | 1009.1 |
| 20260506050833 | 17 | 355 | 14.5 | 24.1 | 0.00 | 0.00 | 0.00 | 77 | 1008.1 |
| 20260506050304 | 17 | 353 | 9.7 | 24.1 | 0.00 | 0.00 | 0.00 | 77 | 1008.1 |
| 20260506045006 | 17 | 321 | 8.0 | 20.9 | 0.00 | 0.00 | 0.00 | 77 | 1008.8 |
| 20260506044804 | 18 | 355 | 9.7 | 19.3 | 0.00 | 0.00 | 0.00 | 77 | 1008.1 |
| 20260506044501 | 17 | 33 | 9.7 | 20.9 | 0.00 | 0.00 | 0.00 | 77 | 1009.0 |
| 20260506044304 | 18 | 343 | 11.3 | 24.1 | 0.00 | 0.00 | 0.00 | 77 | 1008.1 |
| 20260506044003 | 18 | 5 | 11.3 | 20.9 | 0.00 | 0.00 | 0.00 | 77 | 1008.9 |
| 20260506043804 | 18 | 8 | 14.5 | 25.7 | 0.00 | 0.00 | 0.00 | 77 | 1007.9 |
| 20260506043504 | 18 | 350 | 11.3 | 20.9 | 0.00 | 0.00 | 0.00 | 77 | 1008.6 |
| 20260506043006 | 18 | 355 | 9.7 | 19.3 | 0.00 | 0.00 | 0.00 | 77 | 1008.6 |
| 20260506042804 | 18 | 1 | 11.3 | 24.1 | 0.00 | 0.00 | 0.00 | 77 | 1008.0 |
| 20260506042509 | 18 | 333 | 8.0 | 19.3 | 0.00 | 0.00 | 0.00 | 77 | 1008.7 |
| 20260506042305 | 18 | 347 | 9.7 | 16.1 | 0.00 | 0.00 | 0.00 | 76 | 1007.7 |
| 20260506042005 | 18 | 329 | 9.7 | 22.5 | 0.00 | 0.00 | 0.00 | 76 | 1008.4 |
| 20260506041006 | 19 | 5 | 9.7 | 17.7 | 0.00 | 0.00 | 0.00 | 76 | 1008.2 |
| 20260506040502 | 19 | 36 | 8.0 | 16.1 | 0.00 | 0.00 | 0.00 | 76 | 1008.2 |
| 20260506040304 | 20 | 357 | 11.3 | 19.3 | 0.00 | 0.00 | 0.00 | 76 | 1007.5 |
| 20260506040008 | 20 | 355 | 8.0 | 19.3 | 0.00 | 0.00 | 0.00 | 75 | 1008.3 |
| 20260506035803 | 20 | 346 | 9.7 | 14.5 | 0.00 | 0.00 | 0.00 | 76 | 1007.5 |
| 20260506035503 | 20 | 360 | 9.7 | 20.9 | 0.00 | 0.00 | 0.00 | 75 | 1008.3 |
| 20260506034804 | 20 | 1 | 12.9 | 22.5 | 0.00 | 0.00 | 0.00 | 75 | 1007.2 |
| 20260506034502 | 20 | 11 | 11.3 | 19.3 | 0.00 | 0.00 | 0.00 | 75 | 1008.2 |
| 20260506034005 | 20 | 340 | 11.3 | 19.3 | 0.00 | 0.00 | 0.00 | 75 | 1008.0 |
| 20260506033508 | 20 | 46 | 9.7 | 17.7 | 0.00 | 0.00 | 0.00 | 75 | 1007.8 |
| 20260506032306 | 20 | 8 | 14.5 | 22.5 | 0.00 | 0.00 | 0.00 | 74 | 1006.6 |
| 20260506032004 | 20 | 355 | 8.0 | 17.7 | 0.00 | 0.00 | 0.00 | 74 | 1007.3 |
| 20260506031303 | 21 | 349 | 9.7 | 19.3 | 0.00 | 0.00 | 0.00 | 74 | 1006.9 |
| 20260506031006 | 21 | 28 | 9.7 | 20.9 | 0.00 | 0.00 | 0.00 | 74 | 1007.6 |
| 20260506030509 | 21 | 325 | 11.3 | 20.9 | 0.00 | 0.00 | 0.00 | 75 | 1007.5 |
| 20260506025503 | 21 | 349 | 9.7 | 17.7 | 0.00 | 0.00 | 0.00 | 74 | 1007.1 |
| 20260506024505 | 22 | 17 | 11.3 | 20.9 | 0.00 | 0.00 | 0.00 | 73 | 1006.8 |
| 20260506024002 | 22 | 304 | 9.7 | 19.3 | 0.00 | 0.00 | 0.00 | 72 | 1006.7 |
| 20260506023804 | 22 | 341 | 12.9 | 20.9 | 0.00 | 0.00 | 0.00 | 72 | 1005.7 |
| 20260506023506 | 22 | 355 | 8.0 | 17.7 | 0.00 | 0.00 | 0.00 | 72 | 1006.4 |
| 20260506023304 | 23 | 11 | 11.3 | 20.9 | 0.00 | 0.00 | 0.00 | 72 | 1005.6 |
| 20260506023003 | 22 | 348 | 8.0 | 17.7 | 0.00 | 0.00 | 0.00 | 72 | 1006.3 |
| 20260506022500 | 22 | 336 | 6.4 | 16.1 | 0.00 | 0.00 | 0.00 | 72 | 1006.1 |
| 20260506022306 | 23 | 13 | 9.7 | 16.1 | 0.00 | 0.00 | 0.00 | 72 | 1005.2 |
| 20260506022003 | 22 | 15 | 6.4 | 12.9 | 0.00 | 0.00 | 0.00 | 72 | 1005.9 |
| 20260506021505 | 22 | 21 | 4.8 | 12.9 | 0.00 | 0.00 | 0.00 | 71 | 1005.9 |
| 20260506021304 | 23 | 6 | 6.4 | 12.9 | 0.00 | 0.00 | 0.00 | 71 | 1005.1 |
| 20260506021004 | 23 | 12 | 6.4 | 12.9 | 0.00 | 0.00 | 0.00 | 71 | 1005.8 |
| 20260506020502 | 23 | 5 | 4.8 | 12.9 | 0.00 | 0.00 | 0.00 | 71 | 1005.9 |
| 20260506020008 | 23 | 348 | 4.8 | 16.1 | 0.00 | 0.00 | 0.00 | 71 | 1005.8 |
| 20260506015804 | 23 | 352 | 6.4 | 16.1 | 0.00 | 0.00 | 0.00 | 70 | 1004.9 |
| 20260506015306 | 23 | 349 | 11.3 | 20.9 | 0.00 | 0.00 | 0.00 | 70 | 1005.2 |
| 20260506014504 | 23 | 355 | 9.7 | 17.7 | 0.00 | 0.00 | 0.00 | 69 | 1005.6 |
| 20260506014304 | 23 | 9 | 9.7 | 20.9 | 0.00 | 0.00 | 0.00 | 69 | 1004.6 |
| 20260506014010 | 23 | 339 | 9.7 | 17.7 | 0.00 | 0.00 | 0.00 | 69 | 1005.4 |
| 20260506013505 | 23 | 34 | 8.0 | 16.1 | 0.00 | 0.00 | 0.00 | 68 | 1005.2 |
| 20260506013305 | 23 | 1 | 11.3 | 16.1 | 0.00 | 0.00 | 0.00 | 68 | 1004.5 |
| 20260506012803 | 23 | 354 | 11.3 | 20.9 | 0.00 | 0.00 | 0.00 | 68 | 1005.0 |
| 20260506012506 | 23 | 341 | 9.7 | 19.3 | 0.00 | 0.00 | 0.00 | 68 | 1005.7 |
| 20260506012307 | 23 | 346 | 11.3 | 24.1 | 0.00 | 0.00 | 0.00 | 68 | 1005.0 |
| 20260506012007 | 23 | 12 | 11.3 | 22.5 | 0.00 | 0.00 | 0.00 | 67 | 1005.7 |
| 20260506011804 | 24 | 1 | 9.7 | 22.5 | 0.00 | 0.00 | 0.00 | 68 | 1004.6 |
| 20260506011507 | 23 | 338 | 12.9 | 22.5 | 0.00 | 0.00 | 0.00 | 68 | 1005.3 |
| 20260506011009 | 24 | 16 | 11.3 | 19.3 | 0.00 | 0.00 | 0.00 | 68 | 1004.9 |
| 20260506010505 | 25 | 23 | 9.7 | 17.7 | 0.00 | 0.00 | 0.00 | 67 | 1005.1 |
| 20260506010303 | 25 | 1 | 11.3 | 20.9 | 0.00 | 0.00 | 0.00 | 67 | 1004.0 |
| 20260506010003 | 25 | 355 | 9.7 | 17.7 | 0.00 | 0.00 | 0.00 | 67 | 1004.7 |
| 20260506005505 | 25 | 11 | 9.7 | 14.5 | 0.00 | 0.00 | 0.00 | 67 | 1004.8 |
| 20260506005306 | 25 | 4 | 11.3 | 16.1 | 0.00 | 0.00 | 0.00 | 66 | 1004.1 |
| 20260506005005 | 25 | 15 | 8.0 | 14.5 | 0.00 | 0.00 | 0.00 | 66 | 1005.0 |
| 20260506004503 | 25 | 17 | 6.4 | 9.7 | 0.00 | 0.00 | 0.00 | 66 | 1004.9 |
| 20260506004303 | 26 | 5 | 8.0 | 14.5 | 0.00 | 0.00 | 0.00 | 65 | 1004.1 |
| 20260506003502 | 26 | 333 | 6.4 | 14.5 | 0.00 | 0.00 | 0.00 | 65 | 1004.6 |
| 20260506003006 | 26 | 54 | 4.8 | 14.5 | 0.00 | 0.00 | 0.00 | 64 | 1004.7 |
| 20260506002502 | 26 | 355 | 3.2 | 12.9 | 0.00 | 0.00 | 0.00 | 63 | 1004.8 |
| 20260506002306 | 27 | 322 | 3.2 | 9.7 | 0.00 | 0.00 | 0.00 | 63 | 1003.7 |
| 20260506002005 | 27 | 283 | 3.2 | 9.7 | 0.00 | 0.00 | 0.00 | 63 | 1004.9 |
| 20260506001501 | 27 | 348 | 3.2 | 9.7 | 0.00 | 0.00 | 0.00 | 61 | 1004.8 |
| 20260506001304 | 27 | 337 | 4.8 | 14.5 | 0.00 | 0.00 | 0.00 | 60 | 1003.7 |
| 20260506000504 | 28 | 265 | 4.8 | 14.5 | 0.00 | 0.00 | 0.00 | 67 | 1004.3 |
| 20260506000304 | 28 | 256 | 4.8 | 14.5 | 0.00 | 0.00 | 0.00 | 65 | 1003.4 |
| 20260506000004 | 27 | 223 | 6.4 | 14.5 | 0.00 | 0.00 | 0.00 | 63 | 1004.1 |
| 20260505235505 | 27 | 217 | 4.8 | 16.1 | 0.00 | 0.00 | 0.00 | 73 | 1003.8 |
| 20260505234501 | 27 | 191 | 9.7 | 16.1 | 0.00 | 0.00 | 0.00 | 74 | 1003.6 |
| 20260505234005 | 27 | 171 | 9.7 | 17.7 | 0.00 | 0.00 | 0.00 | 74 | 1003.3 |
| 20260505233804 | 27 | 160 | 11.3 | 19.3 | 0.00 | 0.00 | 0.00 | 73 | 1002.9 |
| 20260505233508 | 27 | 165 | 11.3 | 17.7 | 0.00 | 0.00 | 0.00 | 73 | 1003.5 |
| 20260505233004 | 27 | 152 | 11.3 | 22.5 | 0.00 | 0.00 | 0.00 | 72 | 1003.6 |
| 20260505232804 | 28 | 173 | 14.5 | 25.7 | 0.00 | 0.00 | 0.00 | 73 | 1002.8 |
| 20260505232005 | 28 | 177 | 12.9 | 22.5 | 0.00 | 0.00 | 0.00 | 72 | 1003.4 |
| 20260505231304 | 28 | 171 | 14.5 | 22.5 | 0.00 | 0.00 | 0.00 | 72 | 1002.8 |
| 20260505230502 | 28 | 179 | 11.3 | 22.5 | 0.00 | 0.00 | 0.00 | 72 | 1003.4 |
| 20260505230007 | 28 | 168 | 11.3 | 17.7 | 0.00 | 0.00 | 0.00 | 71 | 1003.2 |
| 20260505225501 | 28 | 145 | 9.7 | 19.3 | 0.00 | 0.00 | 0.00 | 72 | 1003.3 |
| 20260505224504 | 28 | 201 | 12.9 | 19.3 | 0.00 | 0.00 | 0.00 | 72 | 1003.3 |
| 20260505224003 | 28 | 159 | 12.9 | 20.9 | 0.00 | 0.00 | 0.00 | 71 | 1003.3 |
| 20260505223507 | 28 | 169 | 12.9 | 20.9 | 0.00 | 0.00 | 0.00 | 70 | 1003.2 |
| 20260505223304 | 28 | 171 | 16.1 | 27.4 | 0.00 | 0.00 | 0.00 | 70 | 1002.4 |
| 20260505223007 | 28 | 154 | 11.3 | 24.1 | 0.00 | 0.00 | 0.00 | 70 | 1003.0 |
| 20260505222503 | 28 | 171 | 11.3 | 20.9 | 0.00 | 0.00 | 0.00 | 70 | 1002.9 |
| 20260505222305 | 28 | 161 | 14.5 | 25.7 | 0.00 | 0.00 | 0.00 | 70 | 1002.4 |
| 20260505222003 | 28 | 167 | 11.3 | 19.3 | 0.00 | 0.00 | 0.00 | 69 | 1003.1 |
| 20260505221505 | 28 | 150 | 9.7 | 19.3 | 0.00 | 0.00 | 0.00 | 68 | 1003.2 |
| 20260505221303 | 29 | 167 | 14.5 | 24.1 | 0.00 | 0.00 | 0.00 | 68 | 1002.5 |
| 20260505221005 | 29 | 131 | 9.7 | 19.3 | 0.00 | 0.00 | 0.00 | 67 | 1003.1 |
| 20260505220804 | 30 | 158 | 11.3 | 19.3 | 0.00 | 0.00 | 0.00 | 66 | 1002.5 |
| 20260505220502 | 30 | 160 | 9.7 | 17.7 | 0.00 | 0.00 | 0.00 | 66 | 1003.1 |
| 20260505220304 | 30 | 165 | 11.3 | 22.5 | 0.00 | 0.00 | 0.00 | 66 | 1002.4 |
| 20260505220004 | 30 | 148 | 8.0 | 17.7 | 0.00 | 0.00 | 0.00 | 64 | 1003.1 |
| 20260505215804 | 31 | 194 | 11.3 | 16.1 | 0.00 | 0.00 | 0.00 | 61 | 1002.3 |
| 20260505214504 | 30 | 223 | 8.0 | 14.5 | 0.00 | 0.00 | 0.00 | 60 | 1003.2 |
| 20260505214303 | 30 | 215 | 9.7 | 20.9 | 0.00 | 0.00 | 0.00 | 61 | 1002.5 |
| 20260505213804 | 30 | 188 | 9.7 | 16.1 | 0.00 | 0.00 | 0.00 | 63 | 1002.6 |
| 20260505213501 | 31 | 155 | 9.7 | 16.1 | 0.00 | 0.00 | 0.00 | 62 | 1003.3 |
| 20260505213304 | 31 | 159 | 11.3 | 20.9 | 0.00 | 0.00 | 0.00 | 61 | 1002.6 |
| 20260505213005 | 31 | 211 | 9.7 | 16.1 | 0.00 | 0.00 | 0.00 | 60 | 1003.2 |
| 20260505212504 | 31 | 171 | 8.0 | 14.5 | 0.00 | 0.00 | 0.00 | 62 | 1003.3 |
| 20260505212305 | 31 | 202 | 11.3 | 19.3 | 0.00 | 0.00 | 0.00 | 60 | 1002.8 |
| 20260505211804 | 31 | 230 | 9.7 | 20.9 | 0.00 | 0.00 | 0.00 | 60 | 1002.8 |
| 20260505211501 | 31 | 236 | 11.3 | 24.1 | 0.00 | 0.00 | 0.00 | 60 | 1003.5 |
| 20260505211004 | 30 | 191 | 11.3 | 24.1 | 0.00 | 0.00 | 0.00 | 60 | 1003.4 |
| 20260505210804 | 31 | 207 | 14.5 | 29.0 | 0.00 | 0.00 | 0.00 | 60 | 1002.8 |
| 20260505210008 | 30 | 187 | 11.3 | 22.5 | 0.00 | 0.00 | 0.00 | 61 | 1003.4 |
| 20260505205500 | 30 | 205 | 12.9 | 24.1 | 0.00 | 0.00 | 0.00 | 59 | 1003.6 |
| 20260505205305 | 31 | 235 | 12.9 | 27.4 | 0.00 | 0.00 | 0.00 | 60 | 1003.0 |
| 20260505205006 | 30 | 244 | 14.5 | 30.6 | 0.00 | 0.00 | 0.00 | 60 | 1003.7 |
| 20260505204504 | 31 | 226 | 11.3 | 30.6 | 0.00 | 0.00 | 0.00 | 59 | 1003.7 |
| 20260505204304 | 31 | 239 | 16.1 | 38.6 | 0.00 | 0.00 | 0.00 | 60 | 1003.2 |
| 20260505203504 | 30 | 248 | 12.9 | 22.5 | 0.00 | 0.00 | 0.00 | 61 | 1003.8 |
| 20260505203011 | 30 | 215 | 11.3 | 20.9 | 0.00 | 0.00 | 0.00 | 63 | 1003.8 |
| 20260505202502 | 30 | 203 | 14.5 | 24.1 | 0.00 | 0.00 | 0.00 | 62 | 1003.8 |
| 20260505202009 | 30 | 221 | 14.5 | 24.1 | 0.00 | 0.00 | 0.00 | 61 | 1004.0 |
| 20260505201804 | 30 | 217 | 17.7 | 32.2 | 0.00 | 0.00 | 0.00 | 62 | 1003.2 |
| 20260505201503 | 30 | 171 | 12.9 | 29.0 | 0.00 | 0.00 | 0.00 | 62 | 1004.0 |
| 20260505201005 | 30 | 211 | 11.3 | 29.0 | 0.00 | 0.00 | 0.00 | 63 | 1004.0 |
| 20260505200804 | 30 | 217 | 11.3 | 25.7 | 0.00 | 0.00 | 0.00 | 63 | 1003.2 |
| 20260505200503 | 30 | 220 | 12.9 | 27.4 | 0.00 | 0.00 | 0.00 | 65 | 1004.0 |
| 20260505195305 | 30 | 217 | 14.5 | 37.0 | 0.00 | 0.00 | 0.00 | 65 | 1003.3 |
| 20260505195006 | 29 | 196 | 12.9 | 29.0 | 0.00 | 0.00 | 0.00 | 65 | 1004.1 |
| 20260505194804 | 30 | 216 | 14.5 | 24.1 | 0.00 | 0.00 | 0.00 | 64 | 1003.3 |
| 20260505194505 | 29 | 237 | 9.7 | 17.7 | 0.00 | 0.00 | 0.00 | 65 | 1004.1 |
| 20260505194304 | 30 | 206 | 12.9 | 22.5 | 0.00 | 0.00 | 0.00 | 65 | 1003.4 |
| 20260505193804 | 29 | 181 | 12.9 | 20.9 | 0.00 | 0.00 | 0.00 | 66 | 1003.3 |
| 20260505193504 | 28 | 195 | 12.9 | 25.7 | 0.00 | 0.00 | 0.00 | 67 | 1004.1 |
| 20260505193010 | 28 | 202 | 11.3 | 25.7 | 0.00 | 0.00 | 0.00 | 68 | 1004.1 |
| 20260505192804 | 29 | 224 | 14.5 | 32.2 | 0.00 | 0.00 | 0.00 | 67 | 1003.4 |
| 20260505192501 | 28 | 169 | 11.3 | 25.7 | 0.00 | 0.00 | 0.00 | 66 | 1004.1 |
| 20260505192305 | 29 | 211 | 14.5 | 22.5 | 0.00 | 0.00 | 0.00 | 67 | 1003.5 |
| 20260505192003 | 28 | 181 | 11.3 | 20.9 | 0.00 | 0.00 | 0.00 | 68 | 1004.2 |
| 20260505191804 | 28 | 211 | 12.9 | 25.7 | 0.00 | 0.00 | 0.00 | 68 | 1003.5 |
| 20260505191502 | 28 | 209 | 12.9 | 20.9 | 0.00 | 0.00 | 0.00 | 68 | 1004.1 |
| 20260505191001 | 28 | 228 | 14.5 | 20.9 | 0.00 | 0.00 | 0.00 | 67 | 1004.3 |
| 20260505190804 | 28 | 217 | 16.1 | 27.4 | 0.00 | 0.00 | 0.00 | 68 | 1003.6 |
| 20260505190304 | 28 | 210 | 16.1 | 32.2 | 0.00 | 0.00 | 0.00 | 68 | 1003.6 |
| 20260505190014 | 28 | 222 | 12.9 | 25.7 | 0.00 | 0.00 | 0.00 | 68 | 1004.2 |
| 20260505185505 | 28 | 213 | 11.3 | 24.1 | 0.00 | 0.00 | 0.00 | 68 | 1004.4 |
| 20260505185006 | 28 | 236 | 14.5 | 25.7 | 0.00 | 0.00 | 0.00 | 69 | 1004.5 |
| 20260505184006 | 27 | 240 | 14.5 | 22.5 | 0.00 | 0.00 | 0.00 | 68 | 1004.4 |
| 20260505183506 | 27 | 194 | 12.9 | 25.7 | 0.00 | 0.00 | 0.00 | 68 | 1004.5 |
| 20260505183004 | 27 | 222 | 14.5 | 29.0 | 0.00 | 0.00 | 0.00 | 69 | 1004.5 |
| 20260505182504 | 27 | 186 | 14.5 | 29.0 | 0.00 | 0.00 | 0.00 | 68 | 1004.4 |
| 20260505182306 | 27 | 205 | 19.3 | 29.0 | 0.00 | 0.00 | 0.00 | 68 | 1003.7 |
| 20260505182006 | 27 | 247 | 11.3 | 20.9 | 0.00 | 0.00 | 0.00 | 68 | 1004.5 |
| 20260505181804 | 28 | 209 | 16.1 | 27.4 | 0.00 | 0.00 | 0.00 | 68 | 1003.8 |
| 20260505181502 | 27 | 220 | 12.9 | 24.1 | 0.00 | 0.00 | 0.00 | 68 | 1004.6 |
| 20260505181004 | 27 | 221 | 12.9 | 24.1 | 0.00 | 0.00 | 0.00 | 68 | 1004.6 |
| 20260505180804 | 28 | 204 | 19.3 | 27.4 | 0.00 | 0.00 | 0.00 | 67 | 1003.9 |
| 20260505180505 | 27 | 196 | 12.9 | 22.5 | 0.00 | 0.00 | 0.00 | 67 | 1004.7 |
| 20260505180006 | 27 | 174 | 14.5 | 24.1 | 0.00 | 0.00 | 0.00 | 68 | 1004.7 |
| 20260505175503 | 27 | 187 | 14.5 | 27.4 | 0.00 | 0.00 | 0.00 | 68 | 1004.6 |
| 20260505175005 | 27 | 217 | 12.9 | 27.4 | 0.00 | 0.00 | 0.00 | 68 | 1004.7 |
| 20260505174503 | 27 | 174 | 14.5 | 25.7 | 0.00 | 0.00 | 0.00 | 68 | 1004.8 |
| 20260505174304 | 27 | 210 | 16.1 | 37.0 | 0.00 | 0.00 | 0.00 | 68 | 1004.1 |
| 20260505174005 | 27 | 178 | 12.9 | 25.7 | 0.00 | 0.00 | 0.00 | 68 | 1004.9 |
| 20260505173504 | 27 | 225 | 14.5 | 24.1 | 0.00 | 0.00 | 0.00 | 69 | 1004.8 |
| 20260505173304 | 27 | 203 | 16.1 | 29.0 | 0.00 | 0.00 | 0.00 | 69 | 1004.0 |
| 20260505173004 | 27 | 203 | 12.9 | 22.5 | 0.00 | 0.00 | 0.00 | 69 | 1004.8 |
| 20260505172007 | 27 | 229 | 16.1 | 29.0 | 0.00 | 0.00 | 0.00 | 71 | 1004.8 |
| 20260505171503 | 26 | 193 | 16.1 | 29.0 | 0.00 | 0.00 | 0.00 | 70 | 1004.9 |
| 20260505171304 | 27 | 223 | 20.9 | 32.2 | 0.00 | 0.00 | 0.00 | 70 | 1004.1 |
| 20260505171004 | 26 | 208 | 14.5 | 29.0 | 0.00 | 0.00 | 0.00 | 71 | 1004.8 |
| 20260505170501 | 26 | 202 | 14.5 | 29.0 | 0.00 | 0.00 | 0.00 | 71 | 1005.0 |
| 20260505165500 | 26 | 200 | 12.9 | 22.5 | 0.00 | 0.00 | 0.00 | 71 | 1004.8 |
| 20260505165306 | 27 | 211 | 19.3 | 27.4 | 0.00 | 0.00 | 0.00 | 71 | 1004.1 |
| 20260505165004 | 26 | 190 | 12.9 | 29.0 | 0.00 | 0.00 | 0.00 | 72 | 1004.7 |
| 20260505164504 | 26 | 167 | 14.5 | 30.6 | 0.00 | 0.00 | 0.00 | 72 | 1004.9 |
| 20260505164304 | 26 | 211 | 22.5 | 38.6 | 0.00 | 0.00 | 0.00 | 71 | 1004.0 |
| 20260505164003 | 26 | 200 | 14.5 | 30.6 | 0.00 | 0.00 | 0.00 | 71 | 1004.9 |
| 20260505163804 | 26 | 215 | 19.3 | 29.0 | 0.00 | 0.00 | 0.00 | 71 | 1004.0 |
| 20260505163501 | 26 | 213 | 16.1 | 30.6 | 0.00 | 0.00 | 0.00 | 72 | 1004.8 |
| 20260505163304 | 26 | 198 | 19.3 | 40.2 | 0.00 | 0.00 | 0.00 | 72 | 1004.0 |
| 20260505163005 | 26 | 181 | 14.5 | 30.6 | 0.00 | 0.00 | 0.00 | 72 | 1004.8 |
| 20260505162803 | 26 | 206 | 17.7 | 32.2 | 0.00 | 0.00 | 0.00 | 72 | 1004.0 |
| 20260505162306 | 26 | 194 | 16.1 | 29.0 | 0.00 | 0.00 | 0.00 | 72 | 1004.0 |
| 20260505162004 | 26 | 212 | 16.1 | 29.0 | 0.00 | 0.00 | 0.00 | 73 | 1004.6 |
| 20260505161804 | 26 | 205 | 22.5 | 33.8 | 0.00 | 0.00 | 0.00 | 72 | 1003.9 |
| 20260505161001 | 26 | 190 | 14.5 | 25.7 | 0.00 | 0.00 | 0.00 | 74 | 1004.5 |
| 20260505160804 | 26 | 203 | 17.7 | 25.7 | 0.00 | 0.00 | 0.00 | 73 | 1003.6 |
| 20260505160504 | 25 | 186 | 14.5 | 30.6 | 0.00 | 0.00 | 0.00 | 74 | 1004.5 |
| 20260505153003 | 24 | 196 | 14.5 | 25.7 | 0.00 | 0.00 | 0.00 | 77 | 1004.6 |
| 20260505152804 | 24 | 188 | 14.5 | 24.1 | 0.00 | 0.00 | 0.00 | 78 | 1004.1 |
| 20260505152500 | 24 | 189 | 14.5 | 29.0 | 0.00 | 0.00 | 0.00 | 78 | 1004.7 |
| 20260505152305 | 24 | 208 | 17.7 | 32.2 | 0.00 | 0.00 | 0.00 | 77 | 1004.1 |
| 20260505152007 | 24 | 226 | 16.1 | 30.6 | 0.00 | 0.00 | 0.00 | 78 | 1004.7 |
| 20260505151804 | 24 | 201 | 22.5 | 38.6 | 0.00 | 0.00 | 0.00 | 78 | 1003.9 |
| 20260505151500 | 23 | 190 | 12.9 | 30.6 | 0.00 | 0.00 | 0.00 | 78 | 1004.7 |
| 20260505151304 | 24 | 199 | 14.5 | 24.1 | 0.00 | 0.00 | 0.00 | 79 | 1003.9 |
| 20260505150505 | 23 | 217 | 14.5 | 29.0 | 0.00 | 0.00 | 0.00 | 79 | 1004.8 |
| 20260505150304 | 23 | 199 | 17.7 | 32.2 | 0.00 | 0.00 | 0.00 | 79 | 1004.2 |
| 20260505140503 | 22 | 178 | 12.9 | 29.0 | 0.00 | 0.00 | 0.00 | 82 | 1004.6 |
| 20260505140304 | 22 | 211 | 14.5 | 37.0 | 0.00 | 0.00 | 0.00 | 82 | 1003.8 |
| 20260505125001 | 21 | 201 | 12.9 | 20.9 | 0.00 | 0.00 | 0.00 | 84 | 1004.5 |
| 20260505124503 | 21 | 203 | 12.9 | 25.7 | 0.00 | 0.00 | 0.00 | 84 | 1004.3 |
| 20260505124003 | 21 | 234 | 14.5 | 25.7 | 0.00 | 0.00 | 0.00 | 84 | 1004.1 |
| 20260505123501 | 21 | 219 | 12.9 | 20.9 | 0.00 | 0.00 | 0.00 | 84 | 1004.1 |
| 20260505123005 | 21 | 202 | 11.3 | 22.5 | 0.00 | 0.00 | 0.00 | 84 | 1004.0 |
| 20260505122504 | 21 | 232 | 11.3 | 22.5 | 0.00 | 0.00 | 0.00 | 84 | 1004.1 |
| 20260505122001 | 21 | 210 | 11.3 | 24.1 | 0.00 | 0.00 | 0.00 | 84 | 1004.0 |
| 20260505121804 | 21 | 193 | 16.1 | 29.0 | 0.00 | 0.00 | 0.00 | 83 | 1003.4 |
| 20260505121502 | 21 | 239 | 11.3 | 24.1 | 0.00 | 0.00 | 0.00 | 84 | 1004.0 |
| 20260505121304 | 21 | 213 | 11.3 | 19.3 | 0.00 | 0.00 | 0.00 | 84 | 1003.3 |
| 20260505121004 | 21 | 186 | 11.3 | 17.7 | 0.00 | 0.00 | 0.00 | 83 | 1004.0 |
| 20260505120804 | 21 | 207 | 16.1 | 24.1 | 0.00 | 0.00 | 0.00 | 84 | 1003.3 |
| 20260505120506 | 21 | 169 | 11.3 | 24.1 | 0.00 | 0.00 | 0.00 | 83 | 1003.9 |
| 20260505120303 | 21 | 206 | 12.9 | 24.1 | 0.00 | 0.00 | 0.00 | 83 | 1003.4 |
| 20260505120007 | 21 | 221 | 11.3 | 24.1 | 0.00 | 0.00 | 0.00 | 83 | 1003.9 |
| 20260505115007 | 21 | 211 | 12.9 | 24.1 | 0.00 | 0.00 | 0.00 | 83 | 1003.9 |
| 20260505114001 | 21 | 211 | 12.9 | 25.7 | 0.00 | 0.00 | 0.00 | 83 | 1003.7 |
| 20260505113804 | 21 | 203 | 19.3 | 27.4 | 0.00 | 0.00 | 0.00 | 83 | 1002.9 |
| 20260505113500 | 21 | 195 | 12.9 | 22.5 | 0.00 | 0.00 | 0.00 | 83 | 1003.6 |
| 20260505113304 | 21 | 184 | 14.5 | 29.0 | 0.00 | 0.00 | 0.00 | 83 | 1002.9 |
| 20260505113005 | 21 | 224 | 14.5 | 24.1 | 0.00 | 0.00 | 0.00 | 83 | 1003.6 |
| 20260505112504 | 21 | 178 | 14.5 | 24.1 | 0.00 | 0.00 | 0.00 | 83 | 1003.5 |
| 20260505112305 | 21 | 200 | 19.3 | 32.2 | 0.00 | 0.00 | 0.00 | 83 | 1002.9 |
| 20260505112007 | 21 | 212 | 12.9 | 25.7 | 0.00 | 0.00 | 0.00 | 83 | 1003.5 |
| 20260505111504 | 21 | 175 | 14.5 | 27.4 | 0.00 | 0.00 | 0.00 | 83 | 1003.6 |
| 20260505111304 | 21 | 219 | 17.7 | 37.0 | 0.00 | 0.00 | 0.00 | 83 | 1002.9 |
| 20260505111001 | 21 | 194 | 14.5 | 27.4 | 0.00 | 0.00 | 0.00 | 83 | 1003.6 |
| 20260505110501 | 21 | 186 | 12.9 | 20.9 | 0.00 | 0.00 | 0.00 | 83 | 1003.6 |
| 20260505110304 | 21 | 190 | 12.9 | 25.7 | 0.00 | 0.00 | 0.00 | 83 | 1002.8 |